Weather History for KEZF - August, 2013

Change the Weather History Date:

Saturday, August 3, 2013

  Actual Average (KDCA) Record (KDCA)
Temperature  
Mean Temperature 76 °F 79 °F  
Max Temperature 84 °F 88 °F 101 °F (2006)
Min Temperature 67 °F 71 °F 56 °F (1920)
Degree Days  
Heating Degree Days 0 0  
Month to date heating degree days 0  
Since 1 June heating degree days 6  
Since 1 July heating degree days 0  
Cooling Degree Days 10 14  
Month to date cooling degree days 42  
Year to date cooling degree days 947  
Since 1 June cooling degree days 813  
Growing Degree Days 26 (Base 50)    
Moisture  
Dew Point 67 °F    
Average Humidity 77    
Maximum Humidity 99    
Minimum Humidity 48    
Precipitation  
Precipitation 0.00 in 0.11 in 1.62 in (1971)
Month to date precipitation 0.32  
Year to date precipitation 23.79  
Snow  
Snow 0.00 in 0.00 in - ()
Month to date snowfall 0.0  
Since 1 July snowfall 0.0  
Snow Depth -    
Sea Level Pressure  
Sea Level Pressure 29.95 in    
Wind  
Wind Speed 1 mph (SE)    
Max Wind Speed 6 mph    
Max Gust Speed -    
Visibility 10 miles    
Events Rain    
T = Trace of Precipitation, MM = Missing Value Source: NWS Daily Summary

Daily Weather History Graph

Daily Weather History Graph

Search for Another Location

Airport or City:

Trip Planner

Search our weather history database for the weather conditions in past years. The results will help you decide how hot, cold, wet, or windy it might be!

Date:

Astronomy

Aug. 03, 2013 Rise Set
Actual Time 6:14 AM EDT 8:17 PM EDT
Civil Twilight 5:44 AM EDT 8:46 PM EDT
Nautical Twilight 5:09 AM EDT 9:21 PM EDT
Astronomical Twilight 4:30 AM EDT 10:00 PM EDT
Moon 3:22 AM EDT (8/3) 5:57 PM EDT (8/3)
Length of Visible Light 15h 01m
Length of Day
14h 03m
Waning Crescent, 9% of the Moon is Illuminated
Aug 3
Waning Crescent
Aug 6
New
Aug 14
First Quarter
Aug 20
Full
Aug 28
Last Quarter

Hourly Weather History & Observations

Time (EDT) Temp. Heat Index Dew Point Humidity Pressure Visibility Wind Dir Wind Speed Gust Speed Precip Events Conditions
12:15 AM 73.4 °F - 65.3 °F 76% 29.96 in 10.0 mi SW 3.5 mph - N/A   Clear
12:35 AM 72.0 °F - 65.3 °F 79% 29.96 in 10.0 mi WSW 4.6 mph - N/A   Clear
12:55 AM 71.6 °F - 65.3 °F 80% 29.96 in 10.0 mi WSW 4.6 mph - N/A   Clear
1:15 AM 72.0 °F - 65.3 °F 79% 29.96 in 10.0 mi Calm Calm - N/A   Clear
1:35 AM 71.8 °F - 65.3 °F 80% 29.96 in 10.0 mi Calm Calm - N/A   Clear
1:55 AM 71.6 °F - 65.3 °F 80% 29.96 in 10.0 mi Calm Calm - N/A   Clear
2:15 AM 70.7 °F - 65.5 °F 83% 29.95 in 10.0 mi Calm Calm - N/A   Clear
2:35 AM 70.3 °F - 65.3 °F 84% 29.95 in 10.0 mi Calm Calm - N/A   Clear
2:55 AM 69.8 °F - 65.3 °F 86% 29.95 in 10.0 mi Calm Calm - N/A   Clear
3:15 AM 68.5 °F - 67.1 °F 95% 29.95 in 10.0 mi Calm Calm - N/A   Clear
3:35 AM 70.0 °F - 65.3 °F 85% 29.95 in 10.0 mi Calm Calm - N/A   Clear
3:55 AM 70.0 °F - 64.9 °F 84% 29.95 in 10.0 mi Calm Calm - N/A   Clear
4:15 AM 69.3 °F - 66.7 °F 92% 29.95 in 10.0 mi Calm Calm - N/A   Clear
4:35 AM 68.0 °F - 67.1 °F 97% 29.96 in 10.0 mi Calm Calm - N/A   Clear
4:55 AM 68.0 °F - 66.7 °F 96% 29.95 in 10.0 mi Calm Calm - N/A   Clear
5:15 AM 68.0 °F - 66.7 °F 96% 29.96 in 10.0 mi Calm Calm - N/A   Clear
5:35 AM 67.1 °F - 66.4 °F 98% 29.96 in 10.0 mi SSE 3.5 mph - N/A   Clear
5:55 AM 67.5 °F - 67.1 °F 99% 29.95 in 10.0 mi Calm Calm - N/A   Clear
6:15 AM 68.2 °F - 67.1 °F 96% 29.95 in 10.0 mi Calm Calm - N/A   Clear
6:35 AM 67.1 °F - 66.4 °F 98% 29.96 in 10.0 mi Calm Calm - N/A   Clear
6:55 AM 67.3 °F - 66.6 °F 98% 29.96 in 7.0 mi Calm Calm - N/A   Clear
7:15 AM 67.6 °F - 67.1 °F 98% 29.96 in 10.0 mi Calm Calm - N/A   Clear
7:35 AM 68.5 °F - 67.5 °F 96% 29.97 in 10.0 mi Calm Calm - N/A   Clear
7:55 AM 69.8 °F - 68.0 °F 94% 29.97 in 10.0 mi Calm Calm - N/A   Clear
8:15 AM 69.8 °F - 68.0 °F 94% 29.97 in 10.0 mi Calm Calm - N/A   Clear
8:35 AM 70.7 °F - 68.0 °F 91% 29.97 in 10.0 mi Calm Calm - N/A   Clear
8:55 AM 70.9 °F - 67.8 °F 90% 29.97 in 10.0 mi Calm Calm - N/A   Clear
9:15 AM 71.6 °F - 67.8 °F 88% 29.98 in 10.0 mi Calm Calm - N/A   Clear
9:35 AM 72.1 °F - 67.3 °F 85% 29.97 in 10.0 mi Calm Calm - N/A   Clear
9:55 AM 72.9 °F - 66.7 °F 81% 29.97 in 10.0 mi Calm Calm - N/A   Clear
10:15 AM 73.4 °F - 67.3 °F 81% 29.98 in 10.0 mi Calm Calm - N/A   Clear
10:35 AM 73.6 °F - 67.8 °F 82% 29.97 in 10.0 mi SSW 3.5 mph - N/A   Clear
10:55 AM 74.5 °F - 66.6 °F 76% 29.96 in 10.0 mi Calm Calm - N/A Rain Light Rain
11:15 AM 75.7 °F - 67.5 °F 75% 29.96 in 10.0 mi SW 3.5 mph - N/A   Clear
11:35 AM 78.4 °F - 64.6 °F 62% 29.96 in 10.0 mi Calm Calm - N/A   Clear
11:55 AM 79.7 °F - 64.4 °F 59% 29.96 in 10.0 mi Calm Calm - N/A   Clear
12:15 PM 80.4 °F 82.7 °F 66.6 °F 63% 29.96 in 10.0 mi Calm Calm - N/A   Clear
12:35 PM 81.1 °F 83.2 °F 66.0 °F 60% 29.96 in 10.0 mi South 3.5 mph - N/A   Clear
12:55 PM 82.9 °F 85.0 °F 65.8 °F 56% 29.95 in 10.0 mi Calm Calm - N/A   Clear
1:15 PM 82.6 °F 84.5 °F 65.3 °F 56% 29.95 in 10.0 mi ESE 4.6 mph - N/A   Clear
1:35 PM 82.8 °F 84.5 °F 64.9 °F 55% 29.95 in 10.0 mi Calm Calm - N/A   Clear
1:55 PM 82.2 °F 83.7 °F 64.0 °F 54% 29.94 in 10.0 mi East 3.5 mph - N/A   Clear
2:15 PM 82.9 °F 84.4 °F 64.4 °F 53% 29.94 in 10.0 mi East 5.8 mph - N/A   Clear
2:35 PM 84.0 °F 85.4 °F 63.9 °F 51% 29.94 in 10.0 mi East 5.8 mph - N/A   Clear
2:55 PM 82.9 °F 83.5 °F 61.3 °F 48% 29.93 in 10.0 mi East 3.5 mph - N/A   Clear
3:15 PM 84.9 °F 86.6 °F 64.8 °F 51% 29.92 in 10.0 mi ESE 4.6 mph - N/A   Clear
3:35 PM 83.7 °F 84.7 °F 63.3 °F 50% 29.92 in 10.0 mi East 3.5 mph - N/A   Clear
3:55 PM 82.6 °F 83.6 °F 62.6 °F 51% 29.93 in 10.0 mi East 4.6 mph - N/A   Scattered Clouds
4:15 PM 82.8 °F 84.2 °F 63.9 °F 53% 29.93 in 10.0 mi Calm Calm - N/A   Mostly Cloudy
4:35 PM 83.3 °F 84.6 °F 63.9 °F 52% 29.92 in 10.0 mi ESE 3.5 mph - N/A   Scattered Clouds
4:55 PM 81.9 °F 83.5 °F 64.9 °F 56% 29.92 in 10.0 mi Calm Calm - N/A   Mostly Cloudy
5:15 PM 81.3 °F 83.3 °F 65.7 °F 59% 29.92 in 10.0 mi Calm Calm - N/A   Overcast
5:35 PM 79.5 °F - 68.4 °F 69% 29.93 in 10.0 mi SSE 3.5 mph - N/A   Overcast
5:55 PM 79.2 °F - 67.8 °F 68% 29.93 in 10.0 mi Calm Calm - N/A   Mostly Cloudy
6:15 PM 78.1 °F - 68.7 °F 73% 29.92 in 10.0 mi Calm Calm - N/A   Mostly Cloudy
6:35 PM 78.8 °F - 68.4 °F 70% 29.92 in 10.0 mi Calm Calm - N/A   Scattered Clouds
6:55 PM 78.6 °F - 68.9 °F 72% 29.92 in 10.0 mi Calm Calm - N/A   Mostly Cloudy
7:15 PM 78.3 °F - 68.5 °F 72% 29.92 in 10.0 mi Calm Calm - N/A Rain Light Rain
7:35 PM 76.3 °F - 71.1 °F 84% 29.92 in 10.0 mi Calm Calm - N/A   Overcast
7:55 PM 76.5 °F - 70.7 °F 82% 29.92 in 10.0 mi Calm Calm - N/A   Overcast
8:15 PM 76.1 °F - 71.1 °F 84% 29.92 in 10.0 mi Calm Calm - N/A   Overcast
8:35 PM 74.8 °F - 71.6 °F 90% 29.92 in 10.0 mi Calm Calm - N/A   Scattered Clouds
8:55 PM 76.1 °F - 70.3 °F 82% 29.93 in 10.0 mi Calm Calm - N/A   Mostly Cloudy
9:15 PM 75.4 °F - 69.3 °F 81% 29.93 in 10.0 mi Calm Calm - N/A   Mostly Cloudy
9:35 PM 73.0 °F - 70.2 °F 91% 29.94 in 10.0 mi Calm Calm - N/A   Mostly Cloudy
9:55 PM 74.7 °F - 69.3 °F 83% 29.95 in 10.0 mi North 3.5 mph - N/A   Overcast
10:15 PM 74.7 °F - 68.7 °F 82% 29.94 in 10.0 mi North 4.6 mph - N/A   Overcast
10:35 PM 74.1 °F - 68.2 °F 82% 29.94 in 10.0 mi North 3.5 mph - N/A   Mostly Cloudy
10:55 PM 73.9 °F - 67.5 °F 80% 29.94 in 10.0 mi Calm Calm - N/A   Overcast
11:15 PM 73.6 °F - 67.1 °F 80% 29.95 in 10.0 mi Calm Calm - N/A   Mostly Cloudy
11:35 PM 72.7 °F - 67.1 °F 83% 29.94 in 10.0 mi Calm Calm - N/A   Scattered Clouds
11:55 PM 72.9 °F - 67.1 °F 82% 29.94 in 10.0 mi Calm Calm - N/A   Mostly Cloudy